FW2027 Weather Reports


Display with metric or nautical units.
time (UTC)temp
F
wind
direction
speed
MPH
gust
MPH
rain 1hr
in
rain 24hr
in
rain mn
in
humidity
%
barometer
mb
20260503010029 50 315 0.0 0.0 0.00 0.54 0.01 98 1007.8
20260503004518 50 315 0.0 0.0 0.01 0.55 0.01 98 1008.2
20260503003018 50 314 0.0 3.0 0.01 0.55 0.01 98 1008.0
20260503001518 50 161 0.0 3.0 0.01 0.55 0.01 98 1008.0
20260503000022 50 157 0.0 2.0 0.01 0.55 0.01 97 1008.3
20260502234514 50 244 1.0 3.0 0.00 0.54 0.00 98 1008.3
20260502233011 50 248 1.0 3.0 0.00 0.54 0.00 97 1008.5
20260502231511 50 284 0.0 2.0 0.00 0.54 0.00 97 1008.6
20260502230005 49 321 0.0 1.0 0.00 0.54 0.54 97 1008.5
20260502224505 50 321 0.0 2.0 0.00 0.54 0.54 97 1008.4
20260502223006 50 321 0.0 2.0 0.00 0.54 0.54 97 1008.5
20260502221505 50 320 1.0 3.0 0.01 0.54 0.54 97 1008.4
20260502220003 50 298 1.0 3.0 0.01 0.54 0.54 97 1008.6
20260502214502 50 328 0.0 3.0 0.02 0.54 0.54 97 1008.6
20260502213002 50 321 0.0 0.0 0.02 0.54 0.54 97 1008.7
20260502211559 50 321 0.0 1.0 0.02 0.54 0.54 97 1008.9
20260502210058 50 321 0.0 3.0 0.02 0.54 0.54 97 1009.2
20260502204615 51 323 0.0 3.0 0.02 0.53 0.53 96 1009.4
20260502203059 51 330 1.0 4.0 0.02 0.52 0.52 97 1009.3
20260502201559 51 329 1.0 4.0 0.06 0.52 0.52 96 1009.3
20260502200058 51 9 2.0 8.0 0.11 0.52 0.52 96 1009.1
20260502194555 51 13 1.0 6.0 0.18 0.51 0.51 96 1009.1
20260502193055 51 343 2.0 6.0 0.23 0.50 0.50 96 1009.1
20260502191601 52 336 3.0 5.0 0.21 0.46 0.46 96 1009.2
20260502190053 52 321 4.0 10.0 0.17 0.41 0.41 95 1009.4
20260502184552 53 331 0.0 2.0 0.10 0.32 0.32 95 1009.5
20260502183052 54 320 2.0 6.0 0.09 0.27 0.27 95 1009.3
20260502181553 54 18 2.0 6.0 0.09 0.25 0.25 95 1009.1
20260502163051 58 150 0.0 2.0 0.06 0.09 0.07 85 1010.7
20260502161540 60 148 1.0 3.0 0.02 0.05 0.03 80 1010.8
20260502151543 61 40 1.0 4.0 0.00 0.03 0.02 74 1010.6
20260502123002 61 307 0.0 6.0 0.00 0.06 0.02 74 1013.0
20260502121600 62 168 5.0 7.0 0.00 0.06 0.02 77 1013.1
20260502114554 60 206 2.0 7.0 0.00 0.06 0.02 75 1013.6
20260502113053 59 267 2.0 6.0 0.00 0.06 0.02 77 1013.7
20260502111553 59 246 4.0 8.0 0.00 0.06 0.02 78 1013.8
20260502110047 58 236 3.0 7.0 0.00 0.06 0.02 78 1014.4
20260502104544 57 248 2.0 7.0 0.00 0.06 0.02 81 1014.4
20260502103041 57 168 5.0 10.0 0.00 0.06 0.02 83 1014.6
20260502101538 56 167 3.0 8.0 0.00 0.06 0.02 86 1014.8
20260502091524 54 192 1.0 5.0 0.00 0.06 0.02 98 1015.0
20260502071502 44 293 0.0 1.0 0.00 0.06 0.02 99 1016.0
20260502070101 44 293 0.0 2.0 0.00 0.06 0.02 99 1016.0
20260502064601 42 293 0.0 1.0 0.01 0.06 0.02 99 1015.8
20260502063120 42 9 0.0 0.0 0.01 0.06 0.02 99 1015.9
20260502061556 41 9 0.0 0.0 0.01 0.06 0.02 99 1016.2
20260502060054 41 9 0.0 0.0 0.01 0.06 0.02 98 1016.0
20260502054551 40 355 0.0 0.0 0.00 0.05 0.01 98 1015.8
20260502053059 40 355 0.0 0.0 0.00 0.05 0.01 98 1015.8
20260502051551 40 355 0.0 2.0 0.00 0.05 0.01 98 1015.8
20260502050049 40 355 1.0 3.0 0.00 0.05 0.01 98 1015.8
20260502044549 40 53 0.0 0.0 0.00 0.05 0.01 98 1015.9
20260502043048 41 53 0.0 0.0 0.00 0.05 0.01 98 1015.8
20260502041553 41 53 0.0 2.0 0.00 0.05 0.01 98 1016.0
20260502040046 40 53 0.0 0.0 0.00 0.05 0.01 98 1016.2
20260502034545 40 53 0.0 2.0 0.00 0.05 0.01 98 1016.3
20260502033043 41 53 2.0 3.0 0.00 0.05 0.01 97 1016.3
20260502031541 41 5 0.0 1.0 0.00 0.05 0.01 97 1016.3
20260502030042 41 5 0.0 1.0 0.00 0.05 0.01 97 1016.4
20260502024536 42 5 1.0 2.0 0.00 0.05 0.01 98 1016.4
20260502023036 42 5 0.0 3.0 0.00 0.05 0.01 97 1016.4
20260502021533 43 5 0.0 0.0 0.00 0.05 0.01 97 1016.4
20260502020029 43 5 0.0 0.0 0.00 0.05 0.01 98 1016.6
20260502014528 43 5 0.0 0.0 0.01 0.05 0.01 97 1016.6
20260502013027 45 5 0.0 0.0 0.01 0.05 0.01 97 1016.7
20260502011525 44 5 0.0 2.0 0.01 0.05 0.01 97 1016.9